SCP
0 0 0 0 -0 0 0 0 -0 -0 0 0 0 0 0 0 0 -0 -0 -0 -0 0
0 0 0 0 0 0 0 0 0 0 -0 -0 0 0 0 0 0 0 -0 -0 -0 -0
1 1 1 1 0 0 0 0 0 0 -0 -0 -0 0 0 0 0 0 -0 -0 -0 -0
0 0 0 0 1 0 1 1 0 0 0 -0 -0 -0 -0 0 0 0 -0 -0 -0 0
-1 -1 -0 -0 0 0 0 1 1 1 0 0 -0 -0 -0 0 0 -0 -0 -0 -0 0
-1 -1 -1 -0 -0 -0 -0 -0 0 0 1 1 0 0 -0 -0 -0 -0 -0 -0 -0 -0
-1 -1 -0 -0 -1 -1 -0 -0 -0 0 1 1 1 0 0 0 0 0 0 -0 -0 0
-0 -0 0 0 -1 -1 -1 -1 -1 -0 -0 0 1 0 0 0 0 0 0 0 0 0
0 -0 -0 0 -0 -1 -2 -2 -2 -1 -1 -1 0 0 0 0 0 0 1 1 1 1
0 0 0 1 1 0 -0 -0 -1 -2 -1 -1 -1 -0 -0 0 0 1 1 2 2 1
0 0 1 1 1 1 1 0 0 1 0 0 0 0 -0 -0 1 1 1 2 2 3
0 0 1 1 1 1 1 1 2 1 1 1 0 1 0 0 1 1 2 3 4 5
0 1 1 2 2 2 2 2 2 3 3 2 1 1 0 0 2 3 4 4 6 5
1 2 2 2 3 3 3 3 3 3 4 4 4 3 0 0 2 3 5 6 9 9
Wind_Speed_500mb
76 73 64 59 51 43 42 39 38 40 43 42 40 35 36 32 30 30 26 22 24 18
82 81 67 66 63 56 49 42 42 40 43 45 45 39 40 33 38 37 34 30 29 25
87 84 83 82 78 66 57 55 46 45 45 47 48 46 46 40 42 44 41 36 36 32
92 88 84 88 87 81 73 68 60 56 50 51 50 52 51 49 43 49 48 45 43 40
93 91 88 88 88 86 80 73 69 66 63 59 55 58 58 58 53 57 55 53 52 50
91 92 95 92 89 86 85 81 76 73 73 68 67 68 69 66 64 64 60 58 58 56
100 99 98 93 91 90 90 88 84 81 78 75 72 75 78 78 76 73 66 66 67 63
89 99 103 102 99 96 93 92 90 88 86 82 79 78 86 88 86 83 79 77 74 71
87 86 94 101 101 101 99 95 93 95 95 94 91 87 89 92 96 96 93 88 81 75
88 88 87 87 90 98 99 94 96 96 99 102 100 96 93 94 98 102 100 95 90 80
89 88 83 83 84 86 94 96 97 96 98 101 104 102 100 95 95 99 100 99 96 94
84 83 80 82 82 66 63 64 65 61 62 77 98 98 102 100 97 98 105 109 108 108
72 75 79 74 62 56 55 55 54 59 59 57 64 68 81 87 95 98 108 114 114 107
62 69 63 60 59 56 55 54 61 64 61 57 66 65 61 74 96 112 105 106 88 91
Wind_Direction_500mb
229 230 230 232 224 229 226 230 228 230 220 225 233 243 243 247 235 237 230 229 217 216
231 230 228 227 235 227 226 225 226 223 225 225 231 238 241 237 238 234 232 232 228 219
230 232 234 238 237 234 226 226 221 224 223 224 229 237 236 235 238 235 232 226 231 226
229 230 233 236 239 238 237 236 230 226 228 226 229 232 234 231 229 237 235 231 229 231
230 230 231 235 238 239 237 235 235 233 235 230 225 231 235 235 232 238 236 236 235 237
230 230 230 232 235 238 237 233 231 230 232 231 230 229 233 236 237 240 240 238 238 240
229 230 230 230 231 234 235 233 230 229 232 233 233 233 232 233 235 239 239 239 239 238
230 231 234 234 236 237 237 235 233 230 231 233 234 233 233 233 235 237 240 241 239 237
233 235 234 236 238 239 239 237 235 233 231 232 232 231 233 233 235 238 239 240 240 236
233 235 237 236 236 240 240 238 237 235 234 234 235 235 236 235 235 239 241 242 242 240
235 237 237 238 240 239 238 238 236 235 236 237 239 239 239 239 240 241 241 244 245 243
236 237 239 243 245 233 227 229 231 233 235 238 242 244 246 245 243 245 246 248 249 246
235 238 241 241 232 227 225 224 221 226 232 238 245 248 252 255 248 248 248 250 248 246
233 237 234 234 235 226 219 215 223 226 234 246 254 255 267 269 264 252 247 247 240 240
Wind_Speed_850mb
76 73 64 59 51 43 42 39 38 40 43 42 40 35 36 32 30 30 26 22 24 18
82 81 67 66 63 56 49 42 42 40 43 45 45 39 40 33 38 37 34 30 29 25
87 84 83 82 78 66 57 55 46 45 45 47 48 46 46 40 42 44 41 36 36 32
92 88 84 88 87 81 73 68 60 56 50 51 50 52 51 49 43 49 48 45 43 40
93 91 88 88 88 86 80 73 69 66 63 59 55 58 58 58 53 57 55 53 52 50
91 92 95 92 89 86 85 81 76 73 73 68 67 68 69 66 64 64 60 58 58 56
100 99 98 93 91 90 90 88 84 81 78 75 72 75 78 78 76 73 66 66 67 63
89 99 103 102 99 96 93 92 90 88 86 82 79 78 86 88 86 83 79 77 74 71
87 86 94 101 101 101 99 95 93 95 95 94 91 87 89 92 96 96 93 88 81 75
88 88 87 87 90 98 99 94 96 96 99 102 100 96 93 94 98 102 100 95 90 80
89 88 83 83 84 86 94 96 97 96 98 101 104 102 100 95 95 99 100 99 96 94
84 83 80 82 82 66 63 64 65 61 62 77 98 98 102 100 97 98 105 109 108 108
72 75 79 74 62 56 55 55 54 59 59 57 64 68 81 87 95 98 108 114 114 107
62 69 63 60 59 56 55 54 61 64 61 57 66 65 61 74 96 112 105 106 88 91
Wind_Direction_850mb
229 230 230 232 224 229 226 230 228 230 220 225 233 243 243 247 235 237 230 229 217 216
231 230 228 227 235 227 226 225 226 223 225 225 231 238 241 237 238 234 232 232 228 219
230 232 234 238 237 234 226 226 221 224 223 224 229 237 236 235 238 235 232 226 231 226
229 230 233 236 239 238 237 236 230 226 228 226 229 232 234 231 229 237 235 231 229 231
230 230 231 235 238 239 237 235 235 233 235 230 225 231 235 235 232 238 236 236 235 237
230 230 230 232 235 238 237 233 231 230 232 231 230 229 233 236 237 240 240 238 238 240
229 230 230 230 231 234 235 233 230 229 232 233 233 233 232 233 235 239 239 239 239 238
230 231 234 234 236 237 237 235 233 230 231 233 234 233 233 233 235 237 240 241 239 237
233 235 234 236 238 239 239 237 235 233 231 232 232 231 233 233 235 238 239 240 240 236
233 235 237 236 236 240 240 238 237 235 234 234 235 235 236 235 235 239 241 242 242 240
235 237 237 238 240 239 238 238 236 235 236 237 239 239 239 239 240 241 241 244 245 243
236 237 239 243 245 233 227 229 231 233 235 238 242 244 246 245 243 245 246 248 249 246
235 238 241 241 232 227 225 224 221 226 232 238 245 248 252 255 248 248 248 250 248 246
233 237 234 234 235 226 219 215 223 226 234 246 254 255 267 269 264 252 247 247 240 240